User: anonymous   Login
Location: Unspecified
(0.0000°N, 0.0000°E)
Time: 17:42:21
(UTC+00:00)
Language:

ZACube-1 - Orbit

View from above orbital plane
View from above orbital plane
View from above satellite
View from above satellite

Ground track
Ground track

The orbit data is extracted from the following two-line orbital elements,

1 39417U 13066B   23334.44976420  .00007178  00000-0  79239-3 0  9997
2 39417  97.7096 290.6517 0055091  99.6008 261.1438 14.86630200541887
Epoch (UTC): 30 November 2023 10:47:39
Eccentricity: 0.0055091
inclination: 97.7096°
perigee height: 570 km
apogee height: 647 km
right ascension of ascending node: 290.6517°
argument of perigee: 99.6008°
revolutions per day: 14.86630200
mean anomaly at epoch: 261.1438°
orbit number at epoch: 54188

The dashed part of the orbit path shows where the satellite is in the earth's shadow,  

DLR